Bellingham, WA
on Sunday, November 18, 2012

Sunday
Previous Day Next Day
Daily Summary
 ActualAverageRecord
Temperature
Mean Temperature °F 43°F  
Max Temperature 53°F 49°F 56°F (1954)
Min Temperature 46°F 36°F 23°F (1994)
Degree Days
Heating Degree Days 16 22  
Month to date heating degree days 367  
Cooling Degree Days 0 0  
Month to date cooling degree days 0  
Year to date cooling degree days 42  
Moisture
Dew Point 39°F   
Average Humidity 68    
Maximum Humidity 76    
Minimum Humidity 59    
Precipitation
Precipitation 0.00 in 0.20 in 1.85 in (2003)
Month to date precipitation 3.55  
Year to date precipitation 29.36  
Wind
Wind Speed 19 mph   
Max Wind Speed 30 mph   
Max Gust Speed 43 mph   
Visibility 10 miles   
Events Rain   

Key: T is trace of precipitation, MM is missing value
Source: NWS Daily Summary
Time(PST)TemperatureDew PointHumidity Pressure Visibility Wind DirectionWind SpeedGust SpeedPrecipitationEvents Conditions
12:24 AM 46.4°F 39.2°F 76% 29.64 in 10.0 miles SSE 17.3 mph 24.2 mph N/A   Overcast
12:34 AM 46.4°F 39.2°F 76% 29.64 in 10.0 miles SSE 16.1 mph 21.9 mph N/A   Overcast
12:53 AM 46.9°F 39.0°F 74% 29.67 in 10.0 miles SSE 18.4 mph 25.3 mph N/A   Overcast
1:29 AM 46.4°F 39.2°F 76% 29.65 in 10.0 miles SSE 17.3 mph 24.2 mph N/A   Overcast
1:53 AM 46.9°F 37.9°F 71% 29.68 in 10.0 miles SSE 13.8 mph 24.2 mph N/A   Overcast
2:53 AM 46.9°F 37.9°F 71% 29.69 in 10.0 miles SSE 19.6 mph 31.1 mph N/A   Overcast
3:53 AM 46.9°F 37.9°F 71% 29.70 in 10.0 miles SSE 18.4 mph 28.8 mph N/A   Overcast
4:53 AM 46.9°F 39.0°F 74% 29.71 in 10.0 miles South 17.3 mph 31.1 mph N/A   Overcast
5:53 AM 46.9°F 39.0°F 74% 29.71 in 10.0 miles SSE 18.4 mph 28.8 mph 0.00 in   Overcast
6:53 AM 46.9°F 37.9°F 71% 29.72 in 10.0 miles SE 15.0 mph 24.2 mph N/A   Overcast
7:53 AM 48.0°F 37.9°F 68% 29.71 in 10.0 miles SSE 17.3 mph 27.6 mph N/A   Overcast
8:35 AM 48.2°F 37.4°F 66% 29.67 in 10.0 miles SSE 18.4 mph 31.1 mph N/A   Overcast
8:53 AM 48.0°F 37.9°F 68% 29.70 in 10.0 miles SE 15.0 mph 34.5 mph N/A   Overcast
9:53 AM 48.0°F 39.0°F 71% 29.70 in 10.0 miles SSE 20.7 mph 32.2 mph N/A   Overcast
10:34 AM 48.2°F 37.4°F 66% 29.68 in 10.0 miles SSE 19.6 mph 32.2 mph N/A   Overcast
10:49 AM 48.2°F 37.4°F 66% 29.68 in 10.0 miles SSE 20.7 mph 32.2 mph N/A   Overcast
10:53 AM 48.9°F 37.9°F 66% 29.71 in 10.0 miles SSE 18.4 mph 32.2 mph N/A   Overcast
11:53 AM 50.0°F 39.0°F 66% 29.70 in 10.0 miles SE 17.3 mph 31.1 mph N/A   Mostly Cloudy
12:26 PM 50.0°F 37.4°F 62% 29.67 in 10.0 miles SE 23.0 mph 29.9 mph N/A   Overcast
12:53 PM 50.0°F 37.9°F 63% 29.68 in 10.0 miles SE 17.3 mph 29.9 mph N/A   Overcast
1:53 PM 50.0°F 37.9°F 63% 29.65 in 10.0 miles SSE 21.9 mph 33.4 mph N/A   Overcast
2:53 PM 51.1°F 37.9°F 61% 29.62 in 10.0 miles ESE 17.3 mph 26.5 mph N/A   Mostly Cloudy
3:53 PM 51.1°F 37.0°F 59% 29.60 in 10.0 miles SE 18.4 mph 27.6 mph N/A   Overcast
4:53 PM 51.1°F 37.0°F 59% 29.57 in 10.0 miles SE 20.7 mph 26.5 mph N/A   Overcast
5:53 PM 51.1°F 37.9°F 61% 29.51 in 10.0 miles ESE 12.7 mph 28.8 mph N/A   Overcast
6:53 PM 50.0°F 39.9°F 68% 29.47 in 9.0 miles SE 21.9 mph 34.5 mph 0.00 in Rain Light Rain
7:53 PM 50.0°F 41.0°F 71% 29.48 in 10.0 miles SE 20.7 mph 35.7 mph 0.00 in   Overcast
8:53 PM 51.1°F 39.9°F 66% 29.50 in 10.0 miles SE 20.7 mph 39.1 mph N/A   Overcast
9:53 PM 52.0°F 41.0°F 66% 29.51 in 10.0 miles SSE 25.3 mph 40.3 mph N/A   Mostly Cloudy
10:53 PM 53.1°F 41.0°F 64% 29.51 in 10.0 miles SSE 21.9 mph 36.8 mph N/A   Overcast
11:17 PM 53.6°F 42.8°F 67% 29.49 in 10.0 miles SSE 24.2 mph 39.1 mph N/A   Overcast
11:39 PM 53.6°F 42.8°F 67% 29.49 in 10.0 miles SSE 28.8 mph 42.6 mph N/A   Overcast
11:53 PM 53.1°F 42.1°F 66% 29.51 in 10.0 miles SSE 29.9 mph 41.4 mph N/A   Overcast
Moon Phase
Nov. 18 Nov. 20 Nov. 28 Dec. 06 Dec. 13
Sunrise:07:24 AM (PST) Moon Rise:11:49 AM (PST)11/18
Sunset:04:25 PM (PST) Moon Set:09:59 PM (PST)11/18

Copyright © 2014 The Weather Underground, Inc.